TimeMDT,TemperatureF,Dew PointF,Humidity,Sea Level PressureIn,VisibilityMPH,Wind Direction,Wind SpeedMPH,Gust SpeedMPH,PrecipitationIn,Events,Conditions,WindDirDegrees,DateUTC
12:53 AM,57.9,48.0,70,30.02,10.0,NNE,10.4,-,N/A,,Clear,30,2013-08-08 06:53:00
1:53 AM,57.0,46.9,69,30.03,10.0,NE,9.2,-,N/A,,Clear,40,2013-08-08 07:53:00
2:53 AM,57.0,48.0,72,30.02,10.0,NE,9.2,-,N/A,,Clear,50,2013-08-08 08:53:00
3:53 AM,55.0,48.0,77,30.01,10.0,NE,9.2,-,N/A,,Clear,50,2013-08-08 09:53:00
4:53 AM,54.0,48.0,80,30.02,10.0,NE,11.5,-,N/A,,Clear,40,2013-08-08 10:53:00
5:53 AM,53.1,48.0,83,30.04,10.0,NE,10.4,-,N/A,,Clear,40,2013-08-08 11:53:00
6:53 AM,55.0,48.0,77,30.05,10.0,NE,10.4,-,N/A,,Clear,40,2013-08-08 12:53:00
7:53 AM,57.9,48.9,72,30.06,10.0,NE,12.7,-,N/A,,Clear,50,2013-08-08 13:53:00
8:53 AM,62.1,50.0,65,30.07,10.0,NE,9.2,-,N/A,,Clear,50,2013-08-08 14:53:00
9:53 AM,66.9,52.0,59,30.06,10.0,ENE,6.9,-,N/A,,Clear,60,2013-08-08 15:53:00
10:53 AM,71.1,53.1,53,30.06,10.0,East,9.2,-,N/A,,Partly Cloudy,90,2013-08-08 16:53:00
11:53 AM,73.9,53.1,48,30.05,10.0,East,10.4,-,N/A,,Partly Cloudy,100,2013-08-08 17:53:00
12:53 PM,75.9,53.1,45,30.05,10.0,Variable,4.6,-,N/A,,Partly Cloudy,0,2013-08-08 18:53:00
1:53 PM,79.0,52.0,39,30.04,10.0,East,10.4,-,N/A,,Clear,90,2013-08-08 19:53:00
2:53 PM,80.1,51.1,36,30.02,10.0,NE,13.8,18.4,N/A,,Clear,50,2013-08-08 20:53:00
3:53 PM,80.1,50.0,35,30.01,10.0,NE,13.8,-,N/A,,Clear,40,2013-08-08 21:53:00
4:53 PM,80.1,50.0,35,30.01,10.0,NE,5.8,16.1,N/A,,Clear,50,2013-08-08 22:53:00
5:53 PM,79.0,48.9,35,30.02,10.0,ENE,11.5,-,N/A,,Clear,60,2013-08-08 23:53:00
6:53 PM,77.0,48.9,37,30.03,10.0,NE,10.4,-,N/A,,Clear,50,2013-08-09 00:53:00
7:53 PM,73.0,48.9,42,30.03,10.0,NE,8.1,-,N/A,,Clear,50,2013-08-09 01:53:00
8:53 PM,69.1,48.0,47,30.05,10.0,NE,9.2,-,N/A,,Clear,50,2013-08-09 02:53:00
9:53 PM,68.0,46.9,47,30.06,10.0,NE,10.4,-,N/A,,Clear,50,2013-08-09 03:53:00
10:53 PM,66.9,46.0,47,30.06,10.0,NE,11.5,-,N/A,,Clear,50,2013-08-09 04:53:00
11:53 PM,64.0,46.9,54,30.06,10.0,NE,13.8,-,N/A,,Clear,40,2013-08-09 05:53:00